Location: *
(46.1006°N, 1.8394°E)
Time: 00:33:49
(UTC+00:00)

NOSS 0 Rocket - Pass Details

Date: 20 September 2019
Orbit: 935 x 955 km, 70.0° (Epoch: 15 October)

Event Time Altitude Azimuth Distance (km) Brightness Sun altitude
Rises 18:15:21 0° 334° (NNW) 3,620 7.5 -4.3°
Reaches altitude 10° 18:17:59 10° 340° (NNW) 2,675 6.7 -4.8°
Maximum altitude 18:24:00 49° 55° (NE) 1,205 4.3 -5.8°
Drops below altitude 10° 18:30:00 10° 130° (SE) 2,673 5.8 -6.9°
Enters shadow 18:32:14 - 135° (SE) 3,477 6.4 -7.3°
